Simultaneous Nadir Overpasses (SNOs) Predictions

Prediction of SNOs between GOES-15 and NOAA-20 Satellite Orbit:

Table of predicted SNOs for the next 14.0 days since TLE Epoch: 6/12/2020
Index Date Time (GOES-15) GOES-15 Lat,Lon NOAA-20 Lat,Lon Distance(km) Time Diff (sec)
1 06/12/2020 21:56:16 -0.01,-127.78 -0.10,-128.14 41.03 80
2 06/13/2020 21:40:12 -0.00,-127.75 0.94,-123.61 471.95 80
3 06/15/2020 10:01:58 0.02,-127.72 0.29,-128.87 132.03 80
4 06/16/2020 09:40:33 0.01,-127.68 -0.76,-124.35 380.16 80
5 06/17/2020 22:02:29 -0.02,-127.60 -0.45,-129.65 232.09 80
6 06/18/2020 21:46:23 -0.01,-127.57 0.53,-125.11 280.18 80
7 06/20/2020 10:08:10 0.02,-127.53 0.64,-130.38 324.40 80
8 06/21/2020 09:46:45 0.01,-127.48 -0.35,-125.84 186.90 80
9 06/22/2020 22:08:40 -0.02,-127.39 -0.85,-131.14 427.51 80
10 06/23/2020 21:52:35 -0.01,-127.34 0.13,-126.60 83.93 80
11 06/26/2020 09:55:37 0.02,-127.25 0.05,-127.33 10.33 80




NCC Satellite Simultaneous Nadir Overpasses (SNOs) Prediction Service
